Probability
0 0 0 0 0 0 0 0 0 0 0 0 0 0 1 4 10 21 34 45 54 64 74 82 85 86 89 95 98 98 95 89 85 83 79 76 71 63 61 60 57 48 40 36
0 0 0 0 0 0 0 0 0 0 0 0 0 0 3 7 13 22 34 46 57 66 75 81 83 83 87 92 94 93 92 87 83 80 76 72 69 65 62 61 56 48 40 34
0 0 0 0 0 0 0 0 0 0 0 0 0 1 7 14 18 23 32 44 57 66 72 77 79 80 83 87 86 85 87 86 82 78 74 71 70 67 66 66 61 52 40 32
0 0 0 0 0 0 0 0 0 0 0 0 0 2 10 18 24 28 32 41 52 59 63 67 71 74 75 77 80 83 85 85 84 81 78 78 78 73 72 74 70 61 48 39
0 0 0 0 0 0 0 0 0 0 0 0 0 2 10 21 31 35 35 38 45 49 51 54 57 60 62 64 73 81 85 85 86 84 84 87 87 83 81 81 77 71 61 54
0 0 0 0 0 0 0 0 0 0 0 0 0 2 10 23 33 37 35 36 39 41 43 43 43 45 48 54 63 72 78 81 82 82 85 88 90 90 89 85 80 76 71 67
0 0 0 0 0 0 0 0 0 0 0 0 0 2 11 24 31 33 33 34 36 35 36 36 35 37 41 46 52 59 66 71 74 76 78 81 83 86 86 84 79 75 72 70
0 0 0 0 0 0 0 0 0 0 0 0 1 7 16 23 23 22 23 26 28 27 27 27 27 28 32 34 38 43 49 54 59 63 67 71 73 75 77 78 77 74 71 68
0 0 0 0 0 0 0 0 0 0 0 0 3 11 20 21 15 10 10 13 18 19 18 17 17 18 19 21 23 26 31 35 38 42 48 53 55 58 63 68 70 71 71 69
0 0 0 0 0 0 0 0 0 0 0 0 2 10 23 28 19 8 6 9 12 13 11 10 9 9 9 11 12 14 17 21 22 24 28 30 32 37 44 50 55 60 65 67
0 0 0 0 0 0 0 0 0 0 0 0 2 12 30 36 25 13 8 9 10 9 7 6 4 3 3 4 5 6 8 10 12 14 15 15 16 20 26 32 36 41 47 50
0 0 0 0 0 0 0 0 0 0 0 0 2 14 29 31 22 13 9 9 8 7 6 4 2 1 1 1 1 1 2 3 5 6 8 8 8 10 14 17 21 25 28 31
0 0 0 0 0 0 0 0 0 0 0 0 2 10 21 23 17 12 8 7 6 5 4 3 2 1 0 0 0 0 0 0 1 1 2 3 2 4 6 8 10 15 18 21
0 0 0 0 0 0 0 0 0 2 3 3 4 8 15 19 16 10 6 3 3 2 2 2 1 1 0 0 0 0 0 0 0 0 1 1 1 2 3 4 6 11 13 14
0 0 0 0 0 0 1 2 3 5 6 6 6 7 10 12 10 6 2 0 0 0 0 0 0 0 0 0 0 0 1 2 2 1 2 2 2 3 3 3 5 8 10 9
0 0 0 0 0 1 3 4 5 6 7 6 5 6 6 5 3 1 0 0 0 0 0 0 0 0 0 0 1 2 4 6 7 4 3 3 3 3 2 2 2 4 6 6
0 0 0 0 0 1 3 3 3 4 4 3 3 3 3 1 0 0 0 0 0 0 0 0 0 0 1 1 2 3 4 8 9 7 5 3 3 2 1 1 2 2 2 2
0 0 0 0 0 1 2 2 1 1 1 1 1 1 0 0 0 0 0 0 0 0 0 0 0 0 1 2 3 2 2 4 6 6 4 2 2 1 1 1 2 2 1 1
0 0 0 0 0 0 1 1 0 0 0 0 0 0 0 0 0 0 0 0 0 0 0 0 0 0 1 4 5 3 1 0 1 2 1 1 0 0 0 1 2 1 1 0
0 0 0 0 0 0 0 0 0 0 0 0 0 0 0 0 0 0 0 0 0 0 0 0 0 1 4 9 11 7 2 0 0 0 0 0 1 1 0 2 3 2 0 0
0 0 0 0 0 0 0 0 0 0 0 0 0 0 0 0 0 0 0 0 0 0 0 0 1 4 10 16 17 12 5 2 2 1 0 0 1 1 1 2 4 3 1 0
0 0 0 0 0 0 0 0 0 0 0 0 0 0 0 0 0 0 0 0 0 0 0 1 2 7 14 17 16 11 6 3 2 1 0 0 1 1 1 2 2 1 0 0
0 0 0 0 0 0 0 0 0 0 0 0 0 0 0 0 0 0 0 0 0 0 0 1 3 7 11 12 10 6 3 2 1 0 0 0 0 0 0 0 0 0 0 0
0 0 0 0 0 0 0 0 0 0 0 0 0 0 0 0 0 0 0 0 0 0 1 2 4 5 6 7 6 3 1 2 1 0 0 0 0 0 0 0 0 0 0 0
0 0 0 0 0 0 0 0 0 0 0 0 0 0 0 0 0 0 0 0 0 0 1 3 4 4 3 3 3 2 1 1 1 0 0 0 0 0 0 0 0 0 0 0
0 0 0 0 0 0 0 0 0 0 0 0 0 0 0 0 0 0 0 0 0 1 2 3 4 2 1 1 1 1 1 1 0 0 0 0 0 0 0 0 0 0 0 0
Wind_Speed
10 10 8 7 7 10 12 13 14 6 4 2 7 10 7 3 3 4 2 2 5 5 7 7 7 6 8 7 7 7 6 4 3 3 2 2 2 2 1 1 3 1 1 1
8 5 5 7 7 9 10 11 12 9 4 4 10 13 9 4 3 1 1 4 5 6 8 8 7 7 7 6 5 5 5 5 3 2 2 1 1 2 2 1 2 2 1 1
4 2 3 6 7 8 8 9 9 9 7 8 13 14 10 5 1 0 1 3 5 6 7 7 6 5 7 7 6 4 4 5 3 2 2 2 1 2 2 1 2 2 1 2
6 4 4 7 8 8 6 9 11 11 11 12 13 11 7 6 6 5 5 8 10 9 9 7 6 5 5 5 5 4 4 3 1 1 2 2 2 3 2 2 2 2 2 3
5 9 8 6 7 8 7 8 11 14 14 15 14 12 2 8 8 8 6 9 11 9 8 8 8 7 7 6 5 5 4 3 2 2 3 3 4 3 3 2 2 2 3 4
9 8 7 5 6 7 9 11 13 10 9 11 11 11 4 7 9 9 8 10 10 9 8 8 9 9 9 9 8 7 5 4 3 3 4 4 5 6 6 6 5 3 3 4
10 9 5 4 7 5 8 11 8 6 3 4 4 7 1 7 9 10 11 11 11 10 8 9 10 11 10 11 11 10 10 7 5 5 5 5 5 6 6 6 5 5 4 4
5 4 6 4 7 8 8 10 9 10 9 6 11 6 5 8 10 10 10 10 10 11 10 10 11 10 10 11 11 10 9 9 8 8 7 6 5 5 5 6 6 6 5 5
6 5 6 7 7 8 8 8 12 11 13 12 1 6 7 8 7 6 7 8 9 9 9 9 10 10 9 9 9 10 9 8 7 8 8 6 6 6 6 7 6 6 5 6
8 10 10 9 9 7 7 9 7 7 9 12 10 4 4 6 3 0 4 7 8 7 8 8 7 7 7 7 7 7 7 7 6 7 7 8 7 7 7 7 7 7 7 7
10 10 11 10 7 10 9 9 7 7 8 11 12 5 5 7 4 2 5 7 7 7 8 8 7 7 7 7 8 7 7 7 6 6 6 6 7 7 7 6 6 6 7 8
10 9 10 12 8 8 7 8 7 7 8 10 11 4 7 7 6 6 7 7 8 8 9 9 8 8 8 8 8 8 8 8 7 7 7 7 7 7 7 8 7 6 7 7
9 7 10 7 2 2 7 8 6 5 7 9 9 3 5 6 6 7 8 8 8 8 9 9 8 8 8 9 9 9 9 9 8 8 8 7 7 8 8 8 8 8 7 7
4 7 11 14 14 13 10 9 7 6 7 9 10 6 5 6 7 8 8 9 10 11 10 9 7 7 8 8 8 9 9 9 9 8 8 8 8 8 8 9 8 8 8 8
5 8 12 15 17 15 12 9 9 9 10 10 11 8 6 6 8 9 10 12 14 14 13 10 8 8 8 8 8 8 8 8 8 8 9 8 8 8 8 8 8 8 8 10
7 8 12 15 15 11 7 11 11 10 11 11 12 9 7 8 10 12 13 16 17 15 13 12 12 11 10 10 10 9 8 8 8 9 9 9 9 9 9 9 9 8 8 8
9 11 12 13 14 10 7 12 11 11 12 12 13 11 12 13 14 15 17 18 15 13 14 15 14 11 10 10 9 9 9 8 9 9 10 10 9 10 9 10 9 8 8 8
6 8 7 11 11 6 8 9 10 10 11 13 11 12 13 15 16 17 16 12 14 17 17 16 14 14 12 11 10 9 11 10 10 10 10 10 10 10 9 8 9 8 8 8
1 4 7 7 10 3 6 9 11 13 13 11 12 15 17 19 18 15 14 17 18 17 16 15 15 17 13 12 11 11 12 12 12 12 10 10 10 10 10 9 9 8 8 8
4 5 7 8 11 7 7 10 13 13 5 12 16 18 19 20 17 14 18 19 18 16 15 15 16 16 13 11 10 11 14 13 13 12 11 11 10 10 11 10 9 9 8 9
9 9 7 9 10 6 8 13 14 11 11 16 17 17 18 17 17 18 20 19 17 16 16 15 14 13 11 11 10 13 14 13 13 12 11 11 10 10 11 10 9 8 9 10
7 8 8 8 9 6 12 12 10 10 12 15 17 18 19 19 20 21 20 18 18 18 19 18 13 12 10 11 11 12 12 12 12 12 13 12 11 13 13 9 8 8 9 10
5 6 5 5 6 7 9 9 10 11 14 15 17 18 20 21 22 22 20 18 18 19 17 16 16 14 12 11 12 14 13 12 13 13 13 12 13 11 11 10 10 10 8 8
6 2 4 6 6 9 11 12 13 14 15 17 18 19 20 21 22 22 19 17 17 17 16 16 17 17 15 14 14 13 13 13 13 14 13 11 11 12 11 8 9 8 8 8
3 4 6 8 10 11 11 14 15 16 16 18 19 20 21 22 22 21 18 17 17 17 16 16 16 16 17 15 14 15 13 12 14 14 13 12 10 10 9 9 8 9 8 7
5 6 6 7 10 11 14 15 16 17 17 19 20 20 21 21 21 21 19 17 16 18 17 16 17 18 18 16 15 14 13 12 12 11 11 9 8 8 8 8 9 10 11 10
Wind_Direction
245 246 272 321 323 311 311 310 310 319 43 355 282 277 273 270 272 257 217 146 141 137 125 113 108 107 107 114 132 139 147 149 153 155 194 200 196 229 223 163 117 112 323 10
248 263 338 342 318 298 287 286 291 299 315 302 282 272 261 239 242 318 75 105 114 120 115 113 119 117 115 113 119 130 145 154 174 162 179 201 222 251 229 155 147 164 119 345
293 39 343 286 277 279 291 306 313 318 315 277 267 262 250 222 192 185 302 91 91 100 95 105 111 121 130 129 136 151 148 147 172 175 220 227 206 257 257 184 180 150 180 244
329 331 294 295 302 310 329 332 322 308 293 281 279 271 236 178 138 85 39 44 46 53 70 66 71 64 82 98 123 119 122 118 138 232 266 270 255 260 267 238 221 181 220 233
296 293 297 304 311 313 311 304 294 288 285 282 281 277 233 125 121 93 67 63 61 40 60 66 56 48 50 51 60 71 78 75 38 346 312 305 295 295 300 295 275 244 239 227
282 269 277 295 293 293 306 298 286 294 303 293 321 320 258 134 133 124 111 98 92 75 51 54 57 46 38 37 34 36 49 47 19 352 329 318 310 310 310 306 297 272 258 235
302 306 301 293 306 330 319 303 301 321 316 272 272 270 266 104 113 117 115 108 101 96 79 61 53 47 34 32 25 28 27 23 9 358 343 329 317 310 298 293 290 284 281 270
317 328 303 317 321 312 299 292 300 311 301 269 197 224 95 76 80 83 89 91 88 83 72 60 53 48 38 33 27 25 25 18 10 2 349 337 328 318 311 314 312 301 294 294
311 307 304 319 302 293 298 305 316 308 303 308 341 102 75 44 45 72 89 83 72 67 65 57 51 43 33 25 22 15 13 9 5 357 347 339 342 330 320 316 308 304 304 301
311 316 314 307 291 273 270 298 310 318 318 315 322 82 151 155 164 20 64 66 58 45 47 47 43 37 25 14 9 6 359 354 351 345 340 339 338 331 326 318 313 310 309 307
321 310 306 313 320 324 319 315 323 316 314 317 319 16 92 133 143 138 73 53 35 22 20 17 17 18 9 360 353 348 340 334 330 327 326 324 320 321 318 311 312 312 308 303
340 328 320 314 331 342 324 310 312 316 320 310 308 40 64 77 58 39 43 33 20 5 358 356 354 352 346 340 335 329 325 321 317 315 313 310 310 311 310 306 300 299 299 300
346 324 307 308 344 289 273 273 288 305 301 304 319 29 77 67 53 35 19 3 352 343 335 332 332 331 325 323 320 314 310 307 306 304 301 301 301 301 298 296 295 294 290 291
285 285 290 300 307 309 299 304 329 338 327 326 348 37 48 38 20 11 356 338 330 324 321 316 317 312 309 305 301 299 297 296 294 291 291 288 285 281 281 284 284 283 284 284
323 308 313 308 307 310 318 341 359 3 357 344 350 5 32 25 356 342 332 325 319 316 317 321 317 308 302 300 294 290 288 289 290 290 288 284 283 283 281 280 279 278 279 284
332 311 308 304 307 311 358 22 13 7 358 346 338 347 19 357 342 333 329 323 316 317 324 326 321 317 314 311 306 303 298 296 292 288 287 285 282 280 278 279 279 279 278 280
340 339 320 306 309 310 40 25 13 1 356 346 336 346 354 341 334 330 324 315 323 336 330 322 317 314 310 306 303 298 298 294 291 290 290 288 287 288 285 286 287 287 288 287
351 332 309 304 320 359 67 37 16 351 342 345 351 355 344 332 329 323 316 336 342 330 322 319 316 311 305 303 300 297 300 297 294 290 289 288 287 286 284 284 285 283 284 286
34 325 311 320 336 69 88 35 5 338 329 24 2 342 334 331 319 313 336 341 327 321 319 315 312 309 305 302 301 300 299 296 292 291 289 290 288 289 288 286 284 285 284 284
347 307 298 326 327 356 49 12 347 318 314 20 348 336 331 326 319 322 330 323 319 319 316 312 309 306 303 303 302 298 297 295 292 291 288 287 283 283 285 283 281 283 283 280
343 331 342 338 325 66 24 358 346 332 343 342 332 327 324 323 316 315 319 320 318 314 312 310 307 304 302 300 296 293 293 291 291 291 289 285 281 280 278 273 271 274 277 277
349 349 357 340 332 25 8 359 359 333 328 327 325 324 322 318 316 317 318 316 315 315 314 313 309 305 302 302 298 294 293 294 294 292 289 286 285 284 284 279 278 275 273 275
35 40 342 345 330 347 0 352 348 340 330 326 324 323 321 318 318 317 316 315 315 315 315 316 315 313 311 308 305 303 302 300 296 292 290 288 287 282 279 277 277 275 269 267
96 65 326 324 328 354 349 349 347 339 328 324 324 322 320 318 317 317 317 319 319 320 321 321 318 314 312 310 307 301 299 297 294 292 290 287 284 281 277 271 269 268 266 266
352 348 338 319 350 340 339 345 337 329 328 326 323 321 320 318 319 322 322 324 324 323 323 322 319 315 312 310 307 304 302 301 298 294 289 286 280 277 275 272 267 265 260 257
37 30 352 338 348 327 328 333 330 331 328 325 322 321 322 324 324 325 325 325 323 323 325 322 318 314 312 311 308 305 303 301 297 293 288 284 281 276 272 273 277 265 257 261